Overview Statistics Trail Chart Weather Telemetry Raw packets
 

This is the latest recevied weather packets stored in our database for station/object EA3IK-1. If no packets are shown the sender has not sent any weather packets the latest 10 day(s).

<< 35 36 37 38 39 >>
Time Temp. Humidity Pressure Rain* Wind** Luminosity Snow
1787772014 27.22° C 62% 1010 hPa 0 mm - - -
1787771113 27.78° C 64% 1009.9 hPa 0 mm - - -
1787770212 27.78° C 64% 1009.8 hPa 0 mm - - -
1787769311 27.78° C 67% 1009.8 hPa 0 mm - - -
1787768410 28.33° C 67% 1009.8 hPa 0 mm - - -
1787767509 28.89° C 65% 1009.7 hPa 0 mm - - -
1787766609 29.44° C 63% 1009.5 hPa 0 mm - - -
1787765708 29.44° C 60% 1009.4 hPa 0 mm - - -
1787764807 30° C 59% 1009.5 hPa 0 mm - - -
1787763906 30° C 62% 1009.7 hPa 0 mm - - -
1787763005 30.56° C 61% 1009.7 hPa 0 mm - - -
1787762104 30.56° C 62% 1009.7 hPa 0 mm - - -
1787761204 30.56° C 60% 1009.8 hPa 0 mm - - -
1787760303 30.56° C 61% 1009.7 hPa 0 mm - - -
1787759403 31.11° C 61% 1009.8 hPa 0 mm - - -
1787758501 31.11° C 59% 1009.8 hPa 0 mm - - -
1787757600 31.11° C 59% 1009.9 hPa 0 mm - - -
1787756699 30.56° C 58% 1010 hPa 0 mm - - -
1787755798 30.56° C 58% 1010.4 hPa 0 mm - - -
1787754898 30.56° C 58% 1010.5 hPa 0 mm - - -
1787753997 30.56° C 60% 1011 hPa 0 mm - - -
1787753096 30° C 61% 1011.1 hPa 0 mm - - -
1787752195 30° C 62% 1011.1 hPa 0 mm - - -
1787751294 28.89° C 64% 1010.6 hPa 0 mm - - -
1787750393 28.33° C 66% 1010.8 hPa 0 mm - - -

* Rain latest hour (hover to see other rain measurements)
** Current wind speed in m/s (hover to see current wind gust speed)